Change the Weather History Date:

Monday, January 28, 2013

  Actual Average Record
Temperature  
Mean Temperature 37 °F -  
Max Temperature 42 °F 27 °F 45 °F (1989)
Min Temperature 32 °F 14 °F -18 °F (1966)
Degree Days  
Heating Degree Days 28    
Moisture  
Dew Point 32 °F    
Average Humidity 91    
Maximum Humidity 100    
Minimum Humidity 65    
Precipitation  
Precipitation 0.09 in - - ()
Sea Level Pressure  
Sea Level Pressure 29.86 in    
Wind  
Wind Speed 4 mph (SE)    
Max Wind Speed 10 mph    
Max Gust Speed -    
Visibility 6 miles    
Events Fog , Rain    
Averages and records for this station are not official NWS values.
T = Trace of Precipitation, MM = Missing Value Source: NWS Daily Summary

Daily Weather History Graph

Daily Weather History Graph

Search for Another Location

Airport or City:

Trip Planner

Search our weather history database for the weather conditions in past years. The results will help you decide how hot, cold, wet, or windy it might be!

Date:

Astronomy

Jan. 28, 2013 Rise Set
Actual Time 7:11 AM CST 4:59 PM CST
Civil Twilight 6:40 AM CST 5:30 PM CST
Nautical Twilight 6:06 AM CST 6:04 PM CST
Astronomical Twilight 5:32 AM CST 6:37 PM CST
Moon 6:58 PM CST (1/28) 7:32 AM CST (1/28)
Length of Visible Light 10h 49m
Length of Day
9h 48m
Full, 98% of the Moon is Illuminated
Jan 28
Full
Feb 3
Last Quarter
Feb 10
New
Feb 17
First Quarter
Feb 25
Full

Hourly Weather History & Observations

Time (CST) Temp. Windchill Dew Point Humidity Pressure Visibility Wind Dir Wind Speed Gust Speed Precip Events Conditions
12:15 AM 32.0 °F 26.4 °F 32.0 °F 100% 29.87 in 2.5 mi SSE 5.8 mph - N/A   Overcast
12:35 AM 32.0 °F 26.4 °F 32.0 °F 100% 29.85 in 2.5 mi SSE 5.8 mph - N/A   Overcast
12:55 AM 32.0 °F 27.5 °F 32.0 °F 100% 29.84 in 2.0 mi South 4.6 mph - N/A   Overcast
1:15 AM 32.0 °F 28.7 °F 32.0 °F 100% 29.84 in 2.0 mi South 3.5 mph - N/A   Overcast
1:35 AM 32.0 °F - 32.0 °F 100% 29.83 in 2.0 mi Calm Calm - N/A   Drizzle
1:55 AM 32.0 °F - 32.0 °F 100% 29.83 in 2.0 mi Calm Calm - 0.01 in   Drizzle
2:15 AM 32.0 °F - 32.0 °F 100% 29.83 in 2.0 mi Calm Calm - 0.01 in   Light Drizzle
2:35 AM 33.8 °F 29.6 °F 32.0 °F 93% 29.80 in 2.0 mi SE 4.6 mph - 0.02 in Rain Light Rain
2:55 AM 33.8 °F - 32.0 °F 93% 29.81 in 2.5 mi Calm Calm - 0.03 in   Overcast
3:15 AM 33.8 °F - 32.0 °F 93% 29.80 in 2.0 mi Calm Calm - 0.01 in   Overcast
3:35 AM 33.8 °F - 32.0 °F 93% 29.79 in 1.2 mi Calm Calm - 0.02 in   Drizzle
3:55 AM 32.0 °F - 32.0 °F 100% 29.79 in 0.8 mi Calm Calm - 0.03 in   Heavy Drizzle
4:15 AM 33.8 °F - 32.0 °F 93% 29.78 in 1.0 mi Calm Calm - 0.01 in   Drizzle
4:35 AM 33.8 °F - 32.0 °F 93% 29.78 in 1.8 mi Calm Calm - 0.02 in   Light Drizzle
4:55 AM 33.8 °F - 32.0 °F 93% 29.78 in 1.5 mi Calm Calm - 0.02 in   Overcast
5:15 AM 32.0 °F - 32.0 °F 100% 29.77 in 0.8 mi Calm Calm - N/A   Overcast
5:35 AM 32.0 °F - 32.0 °F 100% 29.77 in 0.8 mi Calm Calm - N/A   Overcast
5:55 AM 32.0 °F - 32.0 °F 100% 29.78 in 0.5 mi Calm Calm - N/A Fog Fog
6:45 AM 33.8 °F - 33.8 °F 100% 29.80 in 0.5 mi Calm Calm - N/A Fog Fog
7:45 AM 37.4 °F 31.4 °F 37.4 °F 100% 29.83 in 5.0 mi West 8.1 mph - N/A   Overcast
8:45 AM 37.4 °F 31.4 °F 33.8 °F 87% 29.86 in 10.0 mi West 8.1 mph - N/A   Overcast
9:45 AM 35.6 °F 28.0 °F 33.8 °F 93% 29.88 in 10.0 mi WNW 10.4 mph - N/A   Overcast
10:45 AM 37.4 °F 30.8 °F 33.8 °F 87% 29.91 in 10.0 mi WNW 9.2 mph - N/A   Overcast
11:45 AM 37.4 °F 30.8 °F 33.8 °F 87% 29.91 in 10.0 mi West 9.2 mph - N/A   Overcast
12:45 PM 39.2 °F 34.2 °F 32.0 °F 75% 29.91 in 10.0 mi West 6.9 mph - N/A   Overcast
1:45 PM 41.0 °F 37.1 °F 30.2 °F 65% 29.89 in 10.0 mi WNW 5.8 mph - N/A   Scattered Clouds
2:45 PM 42.8 °F 38.6 °F 32.0 °F 66% 29.92 in 10.0 mi West 6.9 mph - N/A   Scattered Clouds
3:45 PM 41.0 °F - 30.2 °F 65% 29.94 in 10.0 mi Calm Calm - N/A   Clear
4:45 PM 37.4 °F 34.9 °F 30.2 °F 75% 29.95 in 10.0 mi NW 3.5 mph - N/A   Clear
5:45 PM 35.6 °F 31.7 °F 30.2 °F 81% 29.95 in 10.0 mi East 4.6 mph - N/A   Clear
6:45 PM 35.6 °F 31.7 °F 30.2 °F 81% 29.94 in 10.0 mi East 4.6 mph - N/A   Clear
7:45 PM 33.8 °F - 32.0 °F 93% 29.96 in 10.0 mi Calm Calm - N/A   Clear
8:15 PM 33.8 °F 30.8 °F 32.0 °F 93% 29.96 in 10.0 mi ESE 3.5 mph - N/A   Scattered Clouds
8:35 PM 33.8 °F 30.8 °F 32.0 °F 93% 29.95 in 10.0 mi East 3.5 mph - N/A   Scattered Clouds
8:45 PM 33.8 °F 30.8 °F 32.0 °F 93% 29.95 in 7.0 mi East 3.5 mph - N/A   Scattered Clouds
8:55 PM 33.8 °F 30.8 °F 32.0 °F 93% 29.94 in 7.0 mi East 3.5 mph - N/A   Clear
9:15 PM 33.8 °F - 32.0 °F 93% 29.93 in 7.0 mi Calm Calm - N/A   Clear
9:35 PM 33.8 °F - 32.0 °F 93% 29.92 in 7.0 mi Calm Calm - N/A   Mostly Cloudy
9:55 PM 33.8 °F 29.6 °F 32.0 °F 93% 29.92 in 7.0 mi SE 4.6 mph - N/A   Overcast
10:15 PM 33.8 °F - 32.0 °F 93% 29.90 in 10.0 mi Calm Calm - N/A   Overcast
10:35 PM 33.8 °F 29.6 °F 32.0 °F 93% 29.88 in 10.0 mi ESE 4.6 mph - N/A   Overcast
10:55 PM 35.6 °F 29.2 °F 33.8 °F 93% 29.85 in 10.0 mi ESE 8.1 mph - N/A   Overcast
11:15 PM 35.6 °F 28.6 °F 33.8 °F 93% 29.85 in 10.0 mi SE 9.2 mph - N/A   Overcast
11:35 PM 35.6 °F 28.6 °F 33.8 °F 93% 29.84 in 10.0 mi ESE 9.2 mph - N/A   Overcast
11:55 PM 35.6 °F 28.6 °F 33.8 °F 93% 29.84 in 5.0 mi ESE 9.2 mph - N/A   Overcast